Weather reports worldwide

Advertisment
Redesdale Camp, United Kingdom (3230): temperature & dewpoint: 14.02.2018 05:00:00 - 20.02.2018 05:00:00 (GMT)Redesdale Camp, United Kingdom (3230): temperature -20cm & temperature -100cm: 14.02.2018 05:00:00 - 20.02.2018 05:00:00 (GMT)Redesdale Camp, United Kingdom (3230): wind speed & gusts: 14.02.2018 05:00:00 - 20.02.2018 05:00:00 (GMT)Redesdale Camp, United Kingdom (3230): wind direction: 14.02.2018 05:00:00 - 20.02.2018 05:00:00 (GMT)Redesdale Camp, United Kingdom (3230): reduced air pressure: 14.02.2018 05:00:00 - 20.02.2018 05:00:00 (GMT)Redesdale Camp, United Kingdom (3230): visibility: 14.02.2018 05:00:00 - 20.02.2018 05:00:00 (GMT)Redesdale Camp, United Kingdom (3230): precipitation: 14.02.2018 05:00:00 - 20.02.2018 05:00:00 (GMT)
Date & Time tt [°C] td [°C] tt -20cm [°C] tt -100cm [°C] ff [km/h] ff [kn] fx [km/h] fx [kn] dd ppp [hPa] vv [km] rr [mm]
20.02.2018 05:00:00 3,9 2,4 - - 11 6 - - NW 1019,6 30 0,0
20.02.2018 04:00:00 5,1 3,1 - - 13 7 - - NW 1018,9 35 0,0
20.02.2018 03:00:00 6,0 5,0 - - 13 7 - - NW 1018,5 30 0,2
20.02.2018 02:00:00 6,3 5,6 - - 13 7 - - NW 1017,8 10 0,2
20.02.2018 01:00:00 6,5 6,2 - - 2 1 - - NW 1018,2 10 0,0
20.02.2018 00:00:00 5,5 5,1 - - 2 1 - - SSE 1018,1 21 0,0
19.02.2018 23:00:00 5,9 5,5 - - 5 3 - - N 1017,9 30 0,0
19.02.2018 22:00:00 7,1 6,4 - - 4 2 - - NW 1017,8 30 0,0
19.02.2018 21:00:00 8,0 7,5 - - 2 1 - - WNW 1017,7 30 0,0
19.02.2018 20:00:00 8,1 7,7 - - 4 2 - - WNW 1017,5 28 0,0
19.02.2018 19:00:00 8,4 7,8 - - 2 1 - - WNW 1017,1 19 0,0
19.02.2018 18:00:00 8,8 8,1 - - 5 3 - - NW 1017,0 7 0,2
19.02.2018 17:00:00 9,1 8,4 - - 9 5 - - NNW 1016,7 6 0,0
19.02.2018 16:00:00 9,7 8,9 - - 8 4 - - NNW 1016,3 12 0,0
19.02.2018 15:00:00 9,9 8,9 - - 4 2 - - WNW 1016,0 5 0,0
19.02.2018 14:00:00 10,2 9,1 - - 5 3 - - WNW 1015,7 27 0,0
19.02.2018 13:00:00 9,8 9,3 - - 8 4 - - NW 1015,6 11 0,0
19.02.2018 12:00:00 9,1 8,9 - - 8 4 - - NW 1015,6 10 0,2
19.02.2018 11:00:00 8,8 8,6 - - 5 3 - - NW 1015,5 2,7 0,2
19.02.2018 10:00:00 8,4 8,2 - - 5 3 - - NW 1015,1 3,2 0,4
19.02.2018 09:00:00 7,5 7,3 2,9 3,7 5 3 - - NW 1014,9 2,6 0,4
19.02.2018 08:00:00 6,5 6,2 - - 4 2 - - WNW 1015,0 2,2 0,8
19.02.2018 07:00:00 6,3 6,0 - - 2 1 - - WSW 1014,7 2,8 0,4
19.02.2018 06:00:00 6,4 6,0 - - 4 2 - - NNW 1014,4 4,6 0,4
19.02.2018 05:00:00 6,3 6,0 - - 2 1 - - WNW 1014,2 11 1,4
19.02.2018 04:00:00 6,2 5,8 - - 2 1 - - NW 1014,1 11 0,8
19.02.2018 03:00:00 6,3 6,0 - - 8 4 - - W 1014,2 5 0,4
19.02.2018 02:00:00 6,2 6,0 - - 8 4 - - W 1014,5 18 0,2
19.02.2018 01:00:00 5,6 5,4 - - 4 2 - - SW 1014,9 14 0,0
19.02.2018 00:00:00 4,9 4,6 - - 2 1 - - SSE 1015,5 3,4 0,2
18.02.2018 23:00:00 4,7 4,4 - - 8 4 - - SE 1016,0 3,5 0,4
18.02.2018 22:00:00 4,8 4,5 - - 9 5 - - SSE 1016,2 5 0,2
18.02.2018 21:00:00 4,7 4,3 - - 9 5 - - SE 1016,6 5 0,6
18.02.2018 20:00:00 4,6 4,1 - - 9 5 - - SSE 1017,1 4,9 0,6
18.02.2018 19:00:00 4,6 4,1 - - 9 5 - - S 1017,3 6 0,4
18.02.2018 18:00:00 4,7 4,0 - - 8 4 - - S 1017,3 7 0,2
18.02.2018 17:00:00 5,3 4,3 - - 9 5 - - S 1017,6 11 0,2
18.02.2018 16:00:00 6,4 4,4 - - 8 4 - - SSE 1017,7 27 0,0
18.02.2018 15:00:00 6,7 4,6 - - 8 4 - - SSE 1017,9 40 0,0
18.02.2018 14:00:00 6,3 4,5 - - 5 3 - - SE 1018,3 40 0,0
18.02.2018 13:00:00 5,4 4,9 - - 2 1 - - ESE 1018,7 30 0,0
18.02.2018 12:00:00 3,5 3,4 - - 2 1 - - E 1019,2 17 0,0
18.02.2018 11:00:00 2,0 1,9 - - 4 2 - - S 1019,7 17 0,0
18.02.2018 10:00:00 0,8 0,6 - - 5 3 - - N 1020,0 16 0,0
18.02.2018 09:00:00 -0,7 -0,9 2,7 3,7 2 1 - - S 1020,2 15 0,0
18.02.2018 08:00:00 -1,4 -1,5 - - 4 2 - - NNE 1020,6 15 0,0
18.02.2018 07:00:00 -2,0 -2,3 - - 4 2 - - NW 1020,9 12 0,0
18.02.2018 06:00:00 -2,0 -2,2 - - 2 1 - - N 1020,5 1,0 0,0
18.02.2018 05:00:00 -1,0 -1,2 - - 2 1 - - W 1020,5 4,8 0,0
18.02.2018 04:00:00 -0,6 -0,9 - - 2 1 - - ENE 1020,2 8 0,0
18.02.2018 03:00:00 0,2 -0,2 - - 8 4 - - N 1020,2 14 0,0
18.02.2018 02:00:00 0,2 -0,1 - - 4 2 - - E 1020,6 9 0,0
18.02.2018 01:00:00 1,8 1,4 - - 2 1 - - N 1020,5 22 0,2
18.02.2018 00:00:00 1,9 1,4 - - 2 1 - - S 1020,4 19 0,0
17.02.2018 23:00:00 2,3 1,9 - - 4 2 - - S 1020,3 24 0,0
17.02.2018 22:00:00 2,0 1,5 - - 5 3 - - SE 1019,9 15 0,0
17.02.2018 21:00:00 2,2 1,8 - - 2 1 - - S 1019,7 26 0,0
17.02.2018 20:00:00 1,0 0,2 - - 2 1 - - SSE 1019,9 22 0,0
17.02.2018 19:00:00 2,2 1,0 - - 4 2 - - ENE 1019,3 35 0,0
17.02.2018 18:00:00 2,8 1,3 - - 9 5 - - WSW 1018,7 40 0,0
17.02.2018 17:00:00 4,1 1,8 - - 15 8 - - WSW 1017,8 45 0,0
17.02.2018 16:00:00 5,6 2,1 - - 22 12 - - SW 1017,2 45 0,0
17.02.2018 15:00:00 6,3 2,7 - - 21 11 - - SW 1016,6 50 0,0
17.02.2018 14:00:00 6,3 3,0 - - 16 9 - - SW 1016,6 50 0,0
17.02.2018 13:00:00 5,0 2,7 - - 15 8 - - SW 1017,1 24 0,0
17.02.2018 12:00:00 6,1 2,4 - - 18 10 - - SW 1017,0 50 0,0
17.02.2018 11:00:00 5,4 3,0 - - 16 9 - - SW 1017,0 50 0,0
17.02.2018 10:00:00 3,1 2,1 - - 9 5 - - ESE 1017,0 45 0,0
17.02.2018 09:00:00 2,9 1,9 2,2 3,7 8 4 - - SSW 1017,0 50 0,0
17.02.2018 08:00:00 2,5 1,5 - - 5 3 - - SE 1016,7 45 0,0
17.02.2018 07:00:00 2,4 1,5 - - 2 1 - - NNW 1016,6 35 0,0
17.02.2018 06:00:00 2,2 1,3 - - 8 4 - - S 1016,2 23 0,2
17.02.2018 05:00:00 2,5 1,2 - - 16 9 - - SSW 1016,3 14 0,2
17.02.2018 04:00:00 2,3 1,0 - - 9 5 - - S 1016,7 50 0,0
17.02.2018 03:00:00 2,8 1,2 - - 15 8 - - S 1017,1 26 0,0
17.02.2018 02:00:00 3,3 0,8 - - 16 9 - - SSW 1017,3 30 0,0
17.02.2018 01:00:00 2,9 0,6 - - 9 5 - - SSW 1017,9 40 0,0
17.02.2018 00:00:00 2,3 1,0 - - 9 5 - - S 1018,4 40 0,0
16.02.2018 23:00:00 2,0 0,7 - - 9 5 - - S 1018,5 27 0,0
16.02.2018 22:00:00 2,1 0,8 - - 13 7 - - SSE 1018,5 30 0,0
16.02.2018 21:00:00 1,8 0,4 - - 9 5 - - SSE 1018,8 35 0,0
16.02.2018 20:00:00 2,6 1,1 - - 11 6 - - S 1019,2 35 0,0
16.02.2018 19:00:00 3,4 1,4 - - 13 7 - - S 1019,3 35 0,0
16.02.2018 18:00:00 4,8 1,9 - - 15 8 - - S 1019,2 40 0,0
16.02.2018 17:00:00 5,5 2,3 - - 16 9 - - SSW 1019,0 40 0,0
16.02.2018 16:00:00 5,7 2,3 - - 16 9 - - SW 1018,9 40 0,0
16.02.2018 15:00:00 5,8 2,1 - - 21 11 - - SW 1018,8 40 0,0
16.02.2018 14:00:00 5,5 1,9 - - 13 7 - - SW 1019,0 35 0,0
16.02.2018 13:00:00 5,3 1,9 - - 15 8 - - SW 1019,4 30 0,0
16.02.2018 12:00:00 5,5 1,9 - - 18 10 - - WSW 1019,4 35 0,0
16.02.2018 11:00:00 4,2 1,4 - - 15 8 - - WSW 1019,0 30 0,0
16.02.2018 10:00:00 3,5 0,9 - - 15 8 - - WSW 1018,6 30 0,0
16.02.2018 09:00:00 2,3 0,3 2,0 3,7 16 9 - - SW 1018,2 30 0,0
16.02.2018 08:00:00 1,6 -0,3 - - 18 10 - - WSW 1017,5 35 0,0
16.02.2018 07:00:00 1,0 -0,7 - - 15 8 - - WSW 1016,8 35 0,0
16.02.2018 06:00:00 1,0 -0,9 - - 15 8 - - WSW 1016,1 35 0,0
16.02.2018 05:00:00 0,7 -1,0 - - 11 6 - - SW 1015,8 30 0,0
16.02.2018 04:00:00 0,8 -1,3 - - 11 6 - - WSW 1015,1 30 0,0
16.02.2018 03:00:00 0,8 -1,4 - - 13 7 - - WSW 1014,3 35 0,0
16.02.2018 02:00:00 1,1 -1,1 - - 16 9 - - SW 1013,5 35 0,0
16.02.2018 01:00:00 1,0 -1,3 - - 11 6 - - W 1012,5 35 0,0
16.02.2018 00:00:00 1,4 -1,3 - - 13 7 - - WSW 1011,6 35 0,0
15.02.2018 23:00:00 1,2 -1,4 - - 21 11 - - WSW 1010,5 35 0,0
15.02.2018 22:00:00 1,6 -1,5 - - 18 10 - - WSW 1009,4 35 0,0
15.02.2018 21:00:00 1,9 -1,1 - - 24 13 46 25 SW 1008,2 30 0,0
15.02.2018 20:00:00 2,3 -1,5 - - 22 12 - - SW 1007,4 40 0,0
15.02.2018 19:00:00 2,1 -0,6 - - 22 12 - - WSW 1006,6 30 0,0
15.02.2018 18:00:00 2,5 -0,2 - - 28 15 48 26 SW 1005,2 28 0,0
15.02.2018 17:00:00 2,6 -0,2 - - 31 17 55 30 SW 1004,2 30 0,0
15.02.2018 16:00:00 2,8 -0,6 - - 31 17 55 30 SW 1003,3 30 0,0
15.02.2018 15:00:00 2,7 -0,5 - - 24 13 55 30 SW 1002,7 30 0,0
15.02.2018 14:00:00 2,8 -1,0 - - 31 17 54 29 SW 1001,7 30 0,0
15.02.2018 13:00:00 3,3 -0,6 - - 31 17 59 32 SW 1000,9 35 0,0
15.02.2018 12:00:00 3,3 -0,4 - - 39 21 63 34 SW 999,2 35 0,0
15.02.2018 11:00:00 2,5 -0,8 - - 31 17 54 29 SW 999,2 35 0,0
15.02.2018 10:00:00 1,5 -0,3 - - 24 13 - - SW 998,9 15 0,0
15.02.2018 09:00:00 2,1 -0,3 2,0 3,7 26 14 - - SW 998,2 30 0,6
15.02.2018 08:00:00 1,9 0,2 - - 26 14 48 26 SW 997,3 30 1,2
15.02.2018 07:00:00 2,6 1,0 - - 18 10 - - SW 996,5 30 0,0
15.02.2018 06:00:00 3,0 1,3 - - 22 12 - - SW 995,7 25 0,0
15.02.2018 05:00:00 3,2 2,0 - - 21 11 - - SW 995,0 29 0,0
15.02.2018 04:00:00 2,6 1,9 - - 13 7 - - SW 994,4 35 0,0
15.02.2018 03:00:00 2,0 1,1 - - 13 7 - - SW 994,0 14 0,4
15.02.2018 02:00:00 3,2 2,4 - - 15 8 - - SW 993,8 3,2 0,6
15.02.2018 01:00:00 2,5 1,9 - - 13 7 - - S 992,9 27 0,0
15.02.2018 00:00:00 2,5 2,0 - - 11 6 - - SSW 993,0 23 0,0
14.02.2018 23:00:00 2,4 1,9 - - 8 4 - - S 993,1 24 0,0
14.02.2018 22:00:00 2,4 1,7 - - 8 4 - - S 992,7 40 0,0
14.02.2018 21:00:00 2,5 1,7 - - 9 5 - - SW 992,6 50 0,0
14.02.2018 20:00:00 3,0 1,9 - - 13 7 - - SSW 991,9 50 0,0
14.02.2018 19:00:00 3,3 2,5 - - 16 9 - - S 991,5 45 0,2
14.02.2018 18:00:00 2,8 2,1 - - 16 9 - - S 991,4 12 0,8
14.02.2018 17:00:00 3,0 1,8 - - 22 12 - - S 991,4 40 0,0
14.02.2018 16:00:00 3,3 1,2 - - 28 15 52 28 S 991,2 35 0,0
14.02.2018 15:00:00 3,3 1,2 - - 29 16 48 26 S 991,1 50 0,0
14.02.2018 14:00:00 1,9 0,8 - - 21 11 - - S 992,4 50 1,4
14.02.2018 13:00:00 0,5 -0,5 - - 22 12 - - SE 993,4 2,2 0,6
14.02.2018 12:00:00 0,6 -1,1 - - 22 12 - - SSE 994,9 0,8 0,2
14.02.2018 11:00:00 1,2 -3,0 - - 21 11 - - SSE 996,1 35 0,0
14.02.2018 10:00:00 0,0 -3,6 - - 24 13 - - SSE 996,9 40 -
14.02.2018 09:00:00 -0,1 -3,1 2,2 3,9 13 7 - - SSE 998,1 45 0,0
14.02.2018 08:00:00 -1,7 -3,3 - - 0 0 - - N 999,2 45 0,0
14.02.2018 07:00:00 -1,9 -3,4 - - 0 0 - - N 1000,0 40 0,0
14.02.2018 06:00:00 -1,8 -2,6 - - 0 0 - - N 1000,8 45 0,0
14.02.2018 05:00:00 -3,5 -4,3 - - 0 0 - - N 1002,0 40 0,0

tt = temperature
td = dewpoint
tt -20cm = temperature -20cm
tt -100cm = temperature -100cm
ff = wind speed
fx = gusts
dd = wind direction
ppp = reduced air pressure
vv = visibility
rr = precipitation

Next stations